Wind_Speed
9 9 9 8 7 7 7 6 5 4 3 3 3 3 3 2 2 2 2 3 3 3 3 3 4 4 3 3 3 3 4 4 3 4 4 3 3 2 2 1 1 1 1
9 9 9 8 7 6 6 6 5 4 4 3 3 3 3 3 2 2 2 2 3 3 3 4 3 3 3 3 3 3 3 4 4 3 3 2 2 2 2 2 1 1 1
10 10 10 8 7 7 6 6 5 4 4 4 4 3 3 2 2 2 2 2 2 2 3 3 3 3 3 3 4 4 3 4 4 4 3 3 3 3 3 3 2 2 2
10 10 10 9 8 6 6 5 5 4 3 3 3 3 2 2 2 2 2 2 2 2 2 2 3 3 3 4 4 4 4 4 5 5 5 5 5 4 3 3 3 3 3
10 9 9 8 8 7 6 5 4 4 3 3 3 3 2 1 1 1 1 1 1 1 2 2 2 3 3 3 3 3 4 4 4 5 5 5 5 5 5 5 4 4 4
10 9 9 9 8 7 7 6 4 4 3 3 2 2 1 1 0 1 0 1 1 1 1 1 2 2 2 3 3 3 3 4 5 4 4 5 5 5 5 5 5 5 5
9 9 10 9 9 8 7 5 4 3 3 3 2 2 2 2 1 1 1 1 1 1 1 1 1 2 2 2 3 3 3 4 4 4 4 5 5 5 4 4 5 5 5
9 9 9 9 9 9 7 6 5 4 3 3 3 2 2 2 2 1 1 1 1 1 1 2 1 1 2 2 2 3 3 3 4 4 5 5 5 5 4 4 5 5 6
9 8 8 9 9 9 8 6 6 5 4 4 3 3 2 2 2 1 1 2 2 1 2 3 3 2 2 2 3 3 4 4 3 5 5 6 6 6 5 5 5 6 6
9 9 9 9 10 9 9 7 7 6 5 5 4 4 3 3 2 2 2 2 3 3 3 3 4 4 3 3 4 4 5 4 5 5 6 6 6 6 5 5 6 6 6
9 9 8 9 10 10 9 8 7 6 6 5 5 4 4 4 3 3 3 3 3 3 4 4 5 4 4 4 5 5 5 6 6 6 7 7 6 6 6 6 6 6 6
10 10 9 9 10 10 10 9 8 7 6 6 5 5 4 4 4 5 5 4 4 4 4 5 6 5 5 5 5 6 6 7 8 8 8 7 7 7 7 7 7 7 7
12 11 10 11 10 10 11 10 9 8 7 7 6 6 6 5 5 5 5 5 6 6 5 5 6 6 6 6 7 7 7 7 8 9 9 8 8 8 8 8 8 7 7
12 12 12 12 11 11 11 11 10 9 9 8 7 7 7 7 7 6 6 6 6 6 6 7 6 6 7 7 7 7 7 8 9 9 8 8 8 8 8 8 8 9 9
12 13 12 12 12 12 11 11 11 10 10 8 7 7 7 8 8 8 7 7 7 7 8 7 7 7 8 8 9 9 8 9 9 9 8 8 8 8 8 7 9 9 10
14 13 13 13 12 12 12 11 12 12 11 9 8 8 8 8 8 9 9 8 8 7 8 8 8 8 9 9 9 9 9 9 9 9 9 8 8 9 9 9 9 10 10
14 14 14 14 13 13 13 13 13 12 12 10 9 10 9 9 10 9 9 8 8 9 9 9 9 9 9 10 9 9 9 9 9 9 9 9 9 9 9 9 9 10 10
17 17 16 15 15 14 14 14 14 13 12 11 10 10 10 10 10 10 10 10 10 10 10 10 10 11 11 11 11 11 10 10 10 10 9 10 10 10 10 10 11 11 11
18 18 17 16 16 15 16 15 16 15 14 12 11 11 11 11 11 11 11 11 11 12 11 12 12 12 12 12 12 11 12 12 11 11 11 12 12 11 11 11 11 12 12
18 19 18 18 17 16 16 16 16 15 14 13 13 13 12 13 13 13 13 13 13 13 12 13 12 11 11 11 12 12 12 12 12 12 12 13 13 13 13 12 13 13 13
19 19 19 19 18 18 18 18 17 16 16 15 14 14 14 14 15 15 15 15 15 15 14 14 13 12 12 12 12 12 13 12 12 12 13 13 12 12 13 13 13 14 14
20 20 20 20 20 20 19 19 18 18 17 16 16 16 16 16 17 17 17 17 16 16 16 16 15 14 14 14 13 13 13 13 12 13 14 14 13 13 13 14 14 14 15
22 22 22 21 21 21 21 20 20 19 18 18 17 17 17 18 18 18 18 18 18 18 17 17 17 16 16 15 15 14 15 15 14 14 14 14 13 13 14 14 15 15 16
22 23 23 22 22 22 22 22 21 21 20 20 19 18 18 19 19 19 19 19 19 20 19 19 19 18 18 17 16 16 16 16 15 15 15 16 15 15 15 15 16 16 16
22 23 24 24 24 24 24 23 23 22 22 21 20 20 20 20 20 20 20 19 20 20 20 21 20 20 19 18 17 17 17 18 17 17 16 16 16 16 16 16 16 17 17
24 23 24 24 24 25 25 25 24 24 23 22 22 22 22 22 22 22 21 19 20 21 20 20 20 21 20 19 19 19 19 19 19 19 18 18 17 17 17 17 17 17 17
Wind_Direction
24 24 22 20 17 14 13 19 26 33 40 55 62 86 106 121 121 134 145 145 152 162 174 172 164 166 162 161 157 162 172 172 169 168 171 167 163 156 159 167 177 196 209
22 20 19 20 16 9 9 15 24 33 38 51 57 70 89 108 122 126 143 141 144 151 163 169 170 173 170 176 186 188 194 199 195 191 206 192 190 189 193 197 221 223 223
22 19 18 19 17 14 13 16 21 33 43 49 53 57 81 98 110 119 130 137 137 136 143 156 174 181 183 193 199 210 218 223 221 221 223 211 206 203 209 220 234 237 245
17 15 17 18 17 14 11 12 16 22 37 50 52 49 74 106 115 129 138 144 144 142 147 163 180 188 196 206 217 224 234 230 232 230 232 225 228 225 221 226 237 246 251
14 14 17 17 15 10 3 2 7 12 23 36 46 49 67 86 124 151 150 149 148 157 162 179 190 195 205 215 226 233 242 240 239 242 229 228 224 230 236 238 237 242 251
13 16 17 14 7 2 358 360 2 0 360 13 28 29 37 33 265 215 176 120 127 139 168 201 202 203 210 216 234 249 258 250 243 247 237 235 234 232 235 240 240 242 248
11 15 14 10 5 357 350 350 356 353 354 358 356 344 348 339 306 268 229 169 137 140 139 216 199 214 228 241 249 258 254 246 249 256 248 250 249 235 236 242 250 248 249
4 5 7 4 2 357 350 349 351 346 351 2 0 345 329 321 314 286 260 249 226 247 262 259 244 238 243 246 250 254 254 255 253 248 251 256 254 248 249 253 258 258 256
355 356 360 0 2 2 359 358 355 346 342 348 351 339 320 305 298 303 289 261 242 257 266 257 251 236 234 248 250 250 260 268 257 258 257 257 260 258 261 280 270 273 267
346 349 351 356 1 5 6 6 0 352 342 340 341 335 318 293 279 271 280 265 254 247 248 252 254 241 240 250 253 250 261 269 265 263 260 262 267 266 267 282 275 274 276
337 344 349 352 356 358 358 358 351 347 343 340 335 327 317 300 287 283 280 264 261 252 242 242 251 247 247 253 250 252 261 264 269 266 264 269 273 271 271 281 280 279 281
334 334 340 343 348 348 349 350 349 340 336 331 324 324 320 310 304 301 295 284 288 282 262 245 247 252 251 254 254 260 265 266 268 269 270 271 274 276 278 280 280 281 280
331 331 333 337 337 337 338 338 341 339 336 327 314 315 313 316 315 312 305 300 295 291 274 259 254 254 255 256 264 270 269 271 264 268 270 274 278 279 280 286 289 285 281
328 330 329 331 332 330 330 332 333 332 330 326 319 317 316 314 316 313 308 303 295 288 281 273 262 257 254 258 264 268 268 269 267 267 270 274 277 278 278 283 287 287 283
323 324 325 324 324 325 325 328 331 330 327 320 320 316 310 308 311 311 305 298 293 292 287 282 276 271 264 264 269 270 271 269 272 273 273 272 278 279 279 281 286 285 285
318 320 322 318 317 318 321 324 324 324 323 319 321 319 314 309 308 306 306 300 290 290 292 293 286 279 272 270 273 270 275 273 273 276 275 276 279 279 280 281 284 284 283
315 314 319 318 315 312 314 315 317 318 318 319 316 312 311 312 310 309 305 299 293 287 286 286 289 281 278 275 275 272 276 278 282 281 279 281 281 282 283 284 284 285 284
314 314 315 315 314 313 311 312 312 314 315 316 315 310 306 305 305 306 308 299 294 290 287 284 284 276 274 275 275 273 273 278 282 282 281 280 280 278 280 283 285 287 284
310 312 311 310 309 310 311 310 309 309 310 310 310 308 306 303 301 302 301 296 291 290 289 287 285 278 272 269 270 273 274 278 279 283 283 283 283 282 280 281 283 284 283
305 308 308 309 306 307 308 307 306 306 306 305 304 302 301 299 297 296 296 294 290 290 290 289 286 279 274 274 273 276 279 276 278 280 279 284 285 283 283 283 282 282 282
300 303 304 304 303 302 303 303 301 302 301 300 300 299 295 294 294 292 293 291 289 288 286 287 284 280 277 281 279 277 279 277 277 280 283 285 284 285 284 284 282 280 281
297 298 300 299 300 299 299 299 300 298 296 295 299 299 297 294 292 289 287 288 288 286 284 284 283 283 281 278 280 280 279 277 277 281 283 283 283 286 286 283 283 281 280
296 295 295 295 296 296 296 297 297 297 295 293 294 295 294 292 290 287 285 286 286 283 282 281 281 280 278 276 278 281 282 281 282 282 282 285 287 286 286 288 287 285 284
292 292 291 292 293 293 293 293 293 292 292 291 292 294 293 292 290 289 287 287 287 284 279 278 279 276 275 275 277 279 280 281 281 282 283 283 286 287 288 289 290 290 286
289 289 289 290 291 290 289 288 290 291 290 291 292 295 297 297 292 291 290 288 288 286 280 277 275 273 273 275 277 280 278 278 279 282 281 282 284 284 285 285 287 288 287
288 287 288 289 289 289 287 286 285 286 286 288 291 293 294 295 294 294 292 290 290 288 284 279 272 272 273 274 276 277 279 279 279 278 279 280 283 284 285 286 287 288 287
Height
5888 5886 5885 5884 5883 5882 5881 5880 5879 5878 5878 5877 5876 5876 5875 5876 5876 5876 5876 5876 5877 5877 5878 5878 5879 5879 5880 5880 5881 5881 5882 5883 5884 5884 5885 5885 5886 5886 5886 5887 5888 5889 5889
5889 5887 5886 5885 5884 5883 5882 5881 5880 5879 5878 5878 5877 5876 5876 5876 5876 5876 5876 5877 5877 5877 5878 5879 5879 5880 5880 5881 5881 5882 5882 5883 5884 5884 5885 5885 5886 5886 5887 5887 5888 5888 5889
5889 5888 5886 5885 5884 5883 5882 5881 5880 5879 5879 5878 5878 5877 5877 5877 5877 5877 5877 5877 5877 5878 5878 5879 5879 5880 5881 5881 5882 5882 5882 5883 5884 5884 5885 5885 5886 5886 5887 5887 5888 5888 5889
5890 5888 5887 5885 5884 5883 5882 5881 5880 5880 5879 5879 5878 5878 5878 5878 5878 5878 5877 5878 5878 5878 5878 5879 5880 5880 5881 5881 5882 5882 5882 5883 5883 5884 5884 5885 5885 5886 5886 5887 5888 5888 5888
5891 5889 5887 5885 5885 5883 5882 5881 5881 5880 5880 5879 5879 5878 5878 5878 5878 5878 5877 5878 5878 5878 5879 5879 5879 5880 5881 5881 5882 5882 5882 5882 5883 5883 5884 5884 5884 5885 5886 5886 5887 5887 5888
5891 5889 5888 5886 5885 5884 5882 5881 5881 5880 5880 5879 5879 5879 5878 5878 5878 5878 5878 5878 5878 5878 5879 5879 5879 5880 5880 5881 5881 5882 5882 5882 5882 5883 5883 5883 5884 5884 5885 5886 5886 5887 5887
5892 5890 5888 5887 5885 5884 5882 5881 5881 5880 5880 5879 5879 5879 5879 5879 5878 5878 5878 5878 5878 5878 5879 5879 5879 5880 5880 5881 5881 5881 5882 5882 5882 5882 5883 5883 5883 5884 5884 5885 5885 5885 5886
5893 5891 5889 5887 5885 5883 5881 5881 5880 5880 5880 5879 5879 5879 5879 5878 5878 5878 5878 5878 5878 5878 5879 5879 5879 5880 5880 5880 5880 5881 5881 5881 5881 5882 5882 5882 5883 5883 5883 5884 5884 5884 5885
5893 5891 5890 5888 5886 5883 5881 5880 5880 5880 5880 5880 5880 5880 5879 5879 5878 5878 5877 5877 5878 5878 5878 5878 5879 5879 5879 5879 5880 5880 5880 5880 5880 5881 5881 5881 5882 5882 5882 5883 5883 5883 5883
5893 5892 5890 5888 5887 5885 5883 5881 5881 5881 5881 5881 5880 5880 5879 5879 5878 5878 5877 5877 5877 5877 5877 5877 5878 5878 5879 5879 5879 5879 5879 5880 5880 5880 5880 5880 5880 5881 5881 5881 5882 5882 5882
5893 5892 5891 5889 5887 5886 5884 5883 5882 5881 5881 5881 5880 5880 5879 5878 5878 5877 5877 5876 5876 5876 5876 5876 5877 5877 5878 5878 5878 5878 5879 5879 5879 5879 5879 5879 5880 5880 5880 5880 5881 5881 5881
5893 5892 5891 5889 5888 5886 5885 5884 5882 5882 5881 5880 5880 5879 5879 5878 5877 5877 5877 5876 5876 5876 5875 5875 5876 5876 5877 5877 5877 5877 5878 5878 5878 5878 5878 5879 5879 5879 5879 5879 5880 5880 5880
5893 5892 5890 5889 5888 5886 5885 5884 5883 5882 5881 5880 5879 5879 5878 5878 5877 5877 5876 5876 5875 5875 5875 5874 5875 5875 5875 5876 5876 5876 5877 5877 5877 5877 5877 5878 5878 5878 5878 5878 5878 5878 5879
5893 5891 5890 5889 5887 5886 5885 5884 5883 5881 5880 5879 5879 5878 5877 5877 5877 5876 5876 5875 5874 5874 5874 5874 5874 5874 5874 5875 5875 5875 5875 5875 5875 5875 5876 5876 5876 5876 5876 5876 5877 5877 5877
5893 5891 5890 5888 5887 5886 5884 5883 5882 5881 5879 5878 5878 5877 5877 5876 5876 5875 5874 5874 5874 5873 5873 5873 5873 5873 5873 5873 5873 5873 5874 5874 5874 5874 5874 5874 5874 5874 5874 5875 5875 5875 5875
5892 5890 5889 5887 5886 5885 5884 5882 5881 5880 5879 5877 5877 5876 5876 5875 5874 5874 5873 5873 5873 5872 5872 5871 5872 5871 5871 5872 5872 5872 5872 5872 5872 5872 5872 5872 5872 5872 5872 5873 5873 5873 5873
5890 5889 5888 5886 5885 5884 5883 5882 5881 5879 5878 5877 5876 5875 5874 5873 5873 5872 5872 5871 5871 5871 5871 5870 5870 5870 5870 5870 5870 5870 5870 5870 5870 5870 5870 5870 5870 5870 5870 5870 5870 5870 5870
5889 5887 5886 5885 5884 5882 5881 5880 5879 5878 5876 5875 5874 5873 5873 5872 5871 5871 5870 5870 5869 5869 5869 5869 5869 5868 5868 5868 5868 5868 5868 5868 5868 5868 5868 5868 5868 5868 5868 5868 5868 5867 5867
5887 5885 5884 5883 5882 5881 5879 5878 5877 5876 5875 5874 5873 5872 5871 5870 5869 5869 5868 5868 5867 5867 5867 5866 5866 5866 5866 5866 5866 5865 5866 5866 5866 5866 5865 5865 5865 5865 5865 5865 5865 5864 5864
5884 5883 5882 5880 5879 5878 5877 5876 5875 5873 5872 5872 5871 5870 5869 5868 5868 5867 5866 5866 5865 5865 5865 5864 5864 5864 5863 5863 5863 5863 5863 5863 5863 5863 5863 5863 5862 5862 5862 5862 5862 5861 5861
5881 5880 5879 5878 5877 5876 5874 5873 5872 5871 5870 5869 5868 5867 5866 5866 5865 5864 5864 5863 5863 5862 5862 5862 5862 5861 5861 5861 5861 5861 5861 5860 5860 5860 5860 5860 5859 5859 5859 5859 5858 5858 5858
5877 5877 5875 5874 5873 5872 5871 5870 5869 5868 5867 5866 5865 5864 5864 5863 5862 5861 5861 5860 5860 5859 5859 5859 5859 5858 5858 5858 5859 5858 5858 5858 5858 5858 5857 5856 5856 5855 5855 5855 5855 5855 5854
5873 5873 5872 5871 5870 5869 5867 5866 5865 5864 5864 5863 5862 5861 5860 5859 5858 5857 5857 5857 5856 5856 5856 5855 5855 5855 5855 5855 5855 5855 5855 5855 5855 5854 5853 5853 5851 5852 5852 5852 5851 5851 5850
5869 5868 5867 5866 5866 5864 5863 5862 5862 5861 5860 5859 5858 5857 5856 5855 5854 5853 5853 5852 5852 5852 5851 5851 5851 5851 5851 5851 5851 5851 5851 5851 5851 5851 5850 5849 5849 5849 5848 5848 5847 5847 5846
5865 5864 5862 5862 5861 5860 5859 5858 5858 5857 5856 5855 5854 5853 5852 5851 5851 5850 5848 5848 5847 5847 5847 5847 5847 5847 5846 5847 5847 5847 5847 5847 5846 5847 5846 5846 5845 5845 5844 5843 5843 5842 5841
5860 5859 5858 5857 5856 5855 5854 5853 5852 5852 5851 5850 5849 5849 5848 5847 5846 5845 5844 5843 5843 5842 5842 5841 5841 5842 5842 5843 5843 5843 5843 5842 5842 5842 5842 5841 5840 5840 5839 5839 5839 5837 5836